Flag for United Kingdom Weather past 2 weeks in Truro, England, United Kingdom

Now
48 °F

Drizzle. Mostly cloudy.


Feels Like: 43 °F
Forecast: 48 / 52 °F
Wind: 12 mph from West

Location: Culdrose

Current Time: Dec 21, 2014 at 9:35:45 AM

Latest Report: Dec 21, 2014 at 8:50 AM


Visibility: N/A

Pressure: 30.42 "Hg

Humidity: 87%

Dew point: 45 °F

Location of TruroLocation

Historic Weather in Truro — Graph

°F

Truro temperature yesterday

Maximum temperature yesterday: 48 °F (at 2:50 AM)
Minimum temperature yesterday: 45 °F (at 4:50 AM)
Average temperature yesterday: 47 °F

Past Weeks' High & Low Weather Summary

 TemperatureHumidityPressure
High54 °F (Dec 9, 5:50 PM)100% (Dec 7, 6:50 AM)30.54 "Hg (Dec 7, 6:50 AM)
Low36 °F (Dec 13, 8:50 PM)53% (Dec 13, 1:50 PM)29.39 "Hg (Dec 12, 3:50 AM)
Average48 °F83%30.07 "Hg
* Reported Dec 6 7:50 AM — Dec 21 7:50 AM, Truro, Weather by CustomWeather, © 2014

Note: Actual official high and low records may vary slightly from our data, if they occured in-between our weather recording intervals... More about our weather records

Advertising

Truro weather history for previous 24 hours

 ConditionsComfort  
Time TempWeatherWind HumidityBarometerVisibility
7:50 AM
Dec 21
48 °FMostly cloudy.13 mph87%30.45 "HgN/A
6:50 AM48 °FOvercast.16 mph82%30.45 "HgN/A
5:50 AM48 °FOvercast.12 mph82%30.45 "HgN/A
4:50 AM48 °FMostly cloudy.13 mph82%30.45 "HgN/A
3:50 AM46 °FSprinkles. Mostly cloudy.14 mph100%30.48 "Hg2 mi
2:50 AM48 °FOvercast.12 mph82%30.48 "HgN/A
1:50 AM48 °FOvercast.10 mph76%30.51 "HgN/A
12:50 AM48 °FOvercast.12 mph82%30.51 "HgN/A
11:50 PM
Dec 20
48 °FLow clouds.10 mph82%30.51 "HgN/A
10:50 PM46 °FPartly cloudy.12 mph93%30.51 "HgN/A
9:50 PM46 °FPassing clouds.8 mph87%30.51 "HgN/A
8:50 PM45 °FPassing clouds.8 mph93%30.51 "HgN/A
7:50 PM46 °FMostly cloudy.8 mph87%30.54 "HgN/A
6:50 PM46 °FMostly cloudy.10 mph87%30.54 "HgN/A
5:50 PM48 °FMostly cloudy.8 mph76%30.51 "HgN/A
4:50 PM48 °FMostly cloudy.8 mph76%30.51 "HgN/A
3:50 PM48 °FOvercast.8 mph76%30.51 "HgN/A
2:50 PM48 °FScattered showers. Partly sunny.8 mph82%30.48 "HgN/A
1:50 PM48 °FMostly cloudy.9 mph82%30.48 "HgN/A
12:50 PM48 °FScattered showers. Mostly cloudy.10 mph71%30.48 "HgN/A
11:50 AM48 °FMore clouds than sun.8 mph76%30.48 "HgN/A
10:50 AM48 °FPartly sunny.9 mph82%30.48 "HgN/A
9:50 AM46 °FScattered showers. Partly sunny.10 mph82%30.45 "HgN/A
Weather by CustomWeather, © 2014

See weather overviewHow to use our weather pages